This demonstration page uses our WeatherBlox Daily Observations layout. Learn more.

Left ArrowRight Arrow

Hourly Observations for August 21, 2017

Temp ( °F °C ) Dew Point ( °F °C ) Humidity (%) Winds ( mph kmh ) Pressure ( in mb ) Visibility ( mi km ) Precip ( " mm )
12:52 am 00:52 Clear 71 21.7 71 21.7 100 100 SSE 7 11 30.04 1017 10 16 0.00 0.00
1:52 am 01:52 Clear 71 21.7 70 21.1 96 96 SSE 12 19 30.04 1017 10 16 0.00 0.00
2:52 am 02:52 Clear 71 21.7 70 21.1 96 96 SSE 12 19 30.02 1017 10 16 0.00 0.00
3:52 am 03:52 Clear 71 21.7 70 21.1 96 96 SSE 9 15 30.02 1017 10 16 0.00 0.00
4:52 am 04:52 Clear 71 21.7 71 21.7 100 100 SSE 8 13 30.04 1017 10 16 0.00 0.00
5:52 am 05:52 Clear 71 21.7 71 21.7 100 100 S 5 7 30.06 1018 10 16 0.00 0.00
6:52 am 06:52 Sunny 72 22.2 72 22.2 100 100 SSE 7 11 30.08 1019 9 14 0.00 0.00
7:52 am 07:52 Sunny 75 23.9 74 23.3 96 96 SE 6 9 30.10 1019 9 14 0.00 0.00
8:52 am 08:52 Sunny 78 25.6 75 23.9 90 90 S 7 11 30.11 1020 10 16 0.00 0.00
9:52 am 09:52 Sunny 82 27.8 75 23.9 79 79 SSW 9 15 30.10 1019 10 16 0.00 0.00
10:52 am 10:52 Sunny 84 28.9 73 22.8 70 70 SSW 14 22 30.09 1019 10 16 0.00 0.00
11:52 am 11:52 Sunny 86 30 74 23.3 67 67 S 10 17 30.07 1018 10 16 0.00 0.00
12:52 pm 12:52 Sunny 85 29.4 74 23.3 70 70 SSW 10 17 30.07 1018 10 16 0.00 0.00
1:52 pm 13:52 Sunny 84 28.9 75 23.9 74 74 S 7 11 30.06 1018 10 16 0.00 0.00
2:52 pm 14:52 Sunny 88 31.1 74 23.3 63 63 SSW 9 15 30.04 1017 10 16 0.00 0.00
3:52 pm 15:52 Mostly Sunny 88 31.1 75 23.9 66 66 S 12 19 30.02 1017 10 16 0.00 0.00
4:52 pm 16:52 Partly Cloudy 88 31.1 74 23.3 63 63 S 9 15 30.01 1016 10 16 0.00 0.00
5:52 pm 17:52 Sunny 88 31.1 73 22.8 61 61 SW 7 11 30.01 1016 10 16 0.00 0.00
6:52 pm 18:52 Sunny 85 29.4 75 23.9 72 72 S 6 9 30.00 1016 10 16 0.00 0.00
7:52 pm 19:52 Sunny 82 27.8 75 23.9 79 79 S 7 11 29.99 1016 10 16 0.00 0.00
8:52 pm 20:52 Clear 81 27.2 74 23.3 79 79 S 8 13 29.99 1016 10 16 0.00 0.00
9:52 pm 21:52 Clear 79 26.1 74 23.3 85 85 S 9 15 29.98 1015 10 16 0.00 0.00
10:52 pm 22:52 Clear 77 25 74 23.3 90 90 S 7 11 30.01 1016 9 14 0.00 0.00
11:52 pm 23:52 Clear 77 25 74 23.3 90 90 S 9 15 30.01 1016 10 16 0.00 0.00

Powered by AerisWeather